AirNav   Everest Fuels
 
 779 users online  

CD52 Mount Princeton Heliport
Mount Princeton, Colorado, USA

GOING TO MOUNT PRINCETON?


FAA INFORMATION EFFECTIVE 16 JULY 2020

Location

FAA Identifier: CD52
Lat/Long: 38-44-42.9870N 106-11-59.0710W
38-44.716450N 106-11.984517W
38.7452742,-106.1997419
(estimated)
Elevation: 10858 ft. / 3310 m (estimated)
Variation: 12E (1985)
From city: 2 miles W of MOUNT PRINCETON, CO
Time zone: UTC -6 (UTC -7 during Standard Time)
Zip code: 81236

Heliport Operations

Heliport use: Private use. Permission required prior to landing
Activation date: 03/1988
Control tower: no
ARTCC: DENVER CENTER
FSS: DENVER FLIGHT SERVICE STATION
Attendance: UNATNDD
Segmented circle: no

Heliport Communications

WX AWOS-3 at AEJ (6 nm NE): 132.925 (719-395-2599)
WX AWOS-3 at ANK (14 nm SE): 133.85 (719-539-5268)

Heliport Services

Runway Information

Helipad H1

Dimensions: 100 x 100 ft. / 30 x 30 m
Surface: turf
Traffic pattern: leftleft

Heliport Ownership and Management from official FAA records

Ownership: Privately-owned
Owner: CENTURYLINK
9666 METRO AIRPORT AVE
BROOMFIELD, CO 80012
Phone (304) 643-4972
Manager: DARREN ALMSKOG
9666 METRO AIRPORT AVE
BROOMFIELD, CO 80012
Phone (303) 304-9960
DARREN ALMSKOG 303-304-9960 DARREN.ALMSKOG@CENTURYLINK.COM

Additional Remarks

FOR CD CTC DENVER ARTCC AT 303-651-4257.

Instrument Procedures

There are no published instrument procedures at CD52.

Some nearby airports with instrument procedures:

KAEJ - Central Colorado Regional Airport (6 nm NE)
KANK - Salida Airport Harriett Alexander Field (14 nm SE)
KLXV - Lake County Airport (29 nm N)
KGUC - Gunnison-Crested Butte Regional Airport (37 nm W)
KASE - Aspen-Pitkin County Airport/Sardy Field (42 nm NW)
 
Loc | Ops | Rwys | IFR | FBO | Links
Com | Nav | Svcs | Stats | Notes

AirBoss

 
Area around CD52 (Mount Princeton Heliport)
 
Road maps at: MapQuest Bing Google
 
Aerial photo
No photo
 
Sectional chart

 
Airport distance calculator
Flying to Mount Princeton Heliport? Find the distance to fly.

From to CD52

Sunrise and sunset
Times for 11-Aug-2020
 Local
(UTC-6)
 Zulu
(UTC)
Morning civil twilight05:4811:48
Sunrise06:1712:17
Sunset20:0302:03
Evening civil twilight20:3102:31

Current date and time
Zulu (UTC)  12-Aug-2020 03:57:50
Local (UTC-6)  11-Aug-2020 21:57:50
 
METAR
K7BM 
3nm N 
120333Z AUTO 27015G22KT 10SM CLR 20/M21 A3042 RMK AO2
KAEJ 
6nm NE 
120335Z AUTO 29009KT 10SM CLR 22/M12 A3026 RMK AO2 T02161121
KANK 
14nm SE 
120335Z AUTO 35006G15KT 320V030 10SM CLR 24/M11 A3030 RMK AO1 T02441115
KMYP 
17nm S 
120335Z AUTO 28019G25KT 10SM CLR 12/M12 A3073 RMK AO2
TAF
KGUC 
36nm W 
111740Z 1118/1218 24004KT P6SM FEW120 FM112000 26015G24KT P6SM SCT120 FM120300 23008KT P6SM FEW120
KASE 
43nm NW 
111740Z 1118/1218 21003KT P6SM BKN100 FM111900 28012G22KT P6SM BKN100 FM120200 22009KT P6SM SCT120 FM120600 19007KT P6SM FEW120
NOTAMs
Click for the latest NOTAMs
NOTAMs are issued by the DoD/FAA and will open in a separate window not controlled by AirNav.

 

 
 

Would you like to see your business listed on this page?

 If your business provides an interesting product or service to pilots, flight crews, aircraft, or users of the Mount Princeton Heliport, you should consider listing it here.  To start the listing process, click on the button below
 
Add a business
 

Other Pages about Mount Princeton Heliport

Update a link
 
Copyright © AirNav, LLC. All rights reserved. Privacy Policy  Contact